| time (UTC) | temp F | wind direction | speed MPH | gust MPH | rain 1hr in | rain 24hr in | rain mn in | humidity % | barometer mb |
| 20260503232022 | 84 | 160 | 4.0 | 14.0 | 0.00 | 0.00 | 0.00 | 26 | 1016.3 |
| 20260503231036 | 84 | 155 | 5.0 | 11.0 | 0.00 | 0.00 | 0.00 | 27 | 1016.3 |
| 20260503230027 | 85 | 160 | 5.0 | 14.0 | 0.00 | 0.00 | 0.00 | 26 | 1016.3 |
| 20260503225022 | 85 | 149 | 6.0 | 25.0 | 0.00 | 0.00 | 0.00 | 27 | 1016.3 |
| 20260503224017 | 85 | 161 | 5.0 | 13.0 | 0.00 | 0.00 | 0.00 | 27 | 1016.3 |
| 20260503223027 | 85 | 159 | 5.0 | 13.0 | 0.00 | 0.00 | 0.00 | 27 | 1016.4 |
| 20260503222022 | 86 | 160 | 4.0 | 9.0 | 0.00 | 0.00 | 0.00 | 26 | 1016.5 |
| 20260503221017 | 87 | 161 | 5.0 | 11.0 | 0.00 | 0.00 | 0.00 | 26 | 1016.7 |
| 20260503220048 | 86 | 169 | 4.0 | 11.0 | 0.00 | 0.00 | 0.00 | 25 | 1016.9 |
| 20260503215022 | 86 | 170 | 5.0 | 15.0 | 0.00 | 0.00 | 0.00 | 25 | 1016.9 |
| 20260503214017 | 87 | 179 | 5.0 | 11.0 | 0.00 | 0.00 | 0.00 | 25 | 1017.1 |
| 20260503213028 | 87 | 158 | 5.0 | 13.0 | 0.00 | 0.00 | 0.00 | 24 | 1017.2 |
| 20260503212023 | 87 | 156 | 4.0 | 11.0 | 0.00 | 0.00 | 0.00 | 25 | 1017.5 |
| 20260503211018 | 86 | 173 | 6.0 | 15.0 | 0.00 | 0.00 | 0.00 | 25 | 1017.5 |
| 20260503210049 | 87 | 155 | 5.0 | 11.0 | 0.00 | 0.00 | 0.00 | 25 | 1017.8 |
| 20260503205024 | 88 | 157 | 3.0 | 9.0 | 0.00 | 0.00 | 0.00 | 25 | 1017.9 |
| 20260503204019 | 88 | 162 | 5.0 | 13.0 | 0.00 | 0.00 | 0.00 | 25 | 1018.2 |
| 20260503203029 | 88 | 168 | 3.0 | 10.0 | 0.00 | 0.00 | 0.00 | 26 | 1018.2 |
| 20260503202024 | 87 | 141 | 2.0 | 6.0 | 0.00 | 0.00 | 0.00 | 27 | 1018.5 |
| 20260503201019 | 87 | 180 | 2.0 | 8.0 | 0.00 | 0.00 | 0.00 | 24 | 1018.6 |
| 20260503200029 | 87 | 172 | 4.0 | 10.0 | 0.00 | 0.00 | 0.00 | 25 | 1018.7 |
| 20260503195024 | 87 | 161 | 4.0 | 10.0 | 0.00 | 0.00 | 0.00 | 25 | 1019.0 |
| 20260503194019 | 87 | 171 | 4.0 | 9.0 | 0.00 | 0.00 | 0.00 | 26 | 1019.1 |
| 20260503193029 | 86 | 155 | 4.0 | 10.0 | 0.00 | 0.00 | 0.00 | 26 | 1019.2 |
| 20260503192025 | 86 | 167 | 4.0 | 11.0 | 0.00 | 0.00 | 0.00 | 28 | 1019.3 |
| 20260503191019 | 87 | 136 | 3.0 | 10.0 | 0.00 | 0.00 | 0.00 | 28 | 1019.7 |
| 20260503190029 | 86 | 93 | 2.0 | 10.0 | 0.00 | 0.00 | 0.00 | 27 | 1019.7 |
| 20260503185045 | 86 | 156 | 4.0 | 10.0 | 0.00 | 0.00 | 0.00 | 29 | 1019.8 |
| 20260503184020 | 85 | 169 | 4.0 | 10.0 | 0.00 | 0.00 | 0.00 | 29 | 1020.0 |
| 20260503183016 | 84 | 281 | 3.0 | 7.0 | 0.00 | 0.00 | 0.00 | 28 | 1020.0 |
| 20260503182026 | 84 | 167 | 3.0 | 6.0 | 0.00 | 0.00 | 0.00 | 30 | 1020.3 |
| 20260503181021 | 83 | 149 | 6.0 | 15.0 | 0.00 | 0.00 | 0.00 | 28 | 1020.5 |
| 20260503180037 | 83 | 290 | 2.0 | 4.0 | 0.00 | 0.00 | 0.00 | 31 | 1020.7 |
| 20260503175027 | 83 | 192 | 3.0 | 11.0 | 0.00 | 0.00 | 0.00 | 32 | 1020.9 |
| 20260503174022 | 83 | 148 | 3.0 | 8.0 | 0.00 | 0.00 | 0.00 | 34 | 1021.0 |
| 20260503173017 | 83 | 139 | 2.0 | 4.0 | 0.00 | 0.00 | 0.00 | 35 | 1021.1 |
| 20260503172047 | 82 | 168 | 3.0 | 13.0 | 0.00 | 0.00 | 0.00 | 35 | 1021.3 |
| 20260503171041 | 82 | 198 | 3.0 | 9.0 | 0.00 | 0.00 | 0.00 | 38 | 1021.6 |
| 20260503131027 | 64 | 167 | 2.0 | 7.0 | 0.00 | 0.00 | 0.00 | 65 | 1021.6 |
| 20260503081041 | 57 | 155 | 1.0 | 2.0 | 0.00 | 0.00 | 0.00 | 72 | 1020.3 |
| 20260503072108 | 58 | 158 | 1.0 | 3.0 | 0.00 | 0.00 | 0.00 | 70 | 1020.7 |
| 20260503071023 | 58 | 163 | 1.0 | 2.0 | 0.00 | 0.00 | 0.00 | 69 | 1020.6 |
| 20260503055016 | 61 | 163 | 2.0 | 6.0 | 0.00 | 0.00 | 0.00 | 64 | 1020.4 |
| 20260503054026 | 61 | 167 | 2.0 | 6.0 | 0.00 | 0.00 | 0.00 | 64 | 1020.5 |
| 20260503053019 | 61 | 175 | 2.0 | 6.0 | 0.00 | 0.00 | 0.00 | 63 | 1020.5 |
| 20260503052047 | 62 | 171 | 2.0 | 4.0 | 0.00 | 0.00 | 0.00 | 63 | 1020.3 |
| 20260503051036 | 62 | 172 | 3.0 | 8.0 | 0.00 | 0.00 | 0.00 | 62 | 1020.3 |
| 20260503050028 | 62 | 163 | 2.0 | 4.0 | 0.00 | 0.00 | 0.00 | 60 | 1020.2 |
| 20260503045024 | 62 | 156 | 2.0 | 7.0 | 0.00 | 0.00 | 0.00 | 59 | 1020.2 |
| 20260503044020 | 63 | 156 | 2.0 | 6.0 | 0.00 | 0.00 | 0.00 | 60 | 1020.2 |
| 20260503043030 | 63 | 161 | 2.0 | 6.0 | 0.00 | 0.00 | 0.00 | 60 | 1020.2 |
| 20260503042136 | 63 | 157 | 1.0 | 3.0 | 0.00 | 0.00 | 0.00 | 60 | 1020.3 |
| 20260503041030 | 64 | 154 | 2.0 | 4.0 | 0.00 | 0.00 | 0.00 | 57 | 1020.3 |
| 20260503040024 | 64 | 160 | 2.0 | 4.0 | 0.00 | 0.00 | 0.00 | 56 | 1020.3 |
| 20260503035202 | 65 | 170 | 2.0 | 3.0 | 0.00 | 0.00 | 0.00 | 54 | 1020.2 |
| 20260503034022 | 65 | 164 | 2.0 | 3.0 | 0.00 | 0.00 | 0.00 | 54 | 1020.3 |
| 20260503033020 | 65 | 164 | 1.0 | 4.0 | 0.00 | 0.00 | 0.00 | 53 | 1020.3 |
| 20260503032036 | 65 | 169 | 2.0 | 4.0 | 0.00 | 0.00 | 0.00 | 53 | 1020.1 |
| 20260503031027 | 66 | 168 | 1.0 | 3.0 | 0.00 | 0.00 | 0.00 | 52 | 1020.1 |
| 20260503030020 | 66 | 165 | 1.0 | 2.0 | 0.00 | 0.00 | 0.00 | 51 | 1020.0 |
| 20260503025030 | 67 | 162 | 1.0 | 3.0 | 0.00 | 0.00 | 0.00 | 49 | 1019.9 |
| 20260503024025 | 67 | 164 | 1.0 | 3.0 | 0.00 | 0.00 | 0.00 | 48 | 1019.8 |
| 20260503023021 | 67 | 167 | 1.0 | 3.0 | 0.00 | 0.00 | 0.00 | 46 | 1019.7 |
| 20260503022016 | 68 | 170 | 1.0 | 2.0 | 0.00 | 0.00 | 0.00 | 45 | 1019.6 |
| 20260503021026 | 68 | 170 | 0.0 | 1.0 | 0.00 | 0.00 | 0.00 | 44 | 1019.5 |
| 20260503020021 | 69 | 170 | 0.0 | 1.0 | 0.00 | 0.00 | 0.00 | 42 | 1019.4 |
| 20260503015016 | 70 | 175 | 0.0 | 2.0 | 0.00 | 0.00 | 0.00 | 41 | 1019.4 |
| 20260503014027 | 71 | 191 | 0.0 | 1.0 | 0.00 | 0.00 | 0.00 | 39 | 1019.3 |
| 20260503013042 | 72 | 194 | 0.0 | 2.0 | 0.00 | 0.00 | 0.00 | 37 | 1019.3 |
| 20260503012017 | 72 | 168 | 1.0 | 3.0 | 0.00 | 0.00 | 0.00 | 35 | 1019.2 |
| 20260503011027 | 73 | 155 | 1.0 | 3.0 | 0.00 | 0.00 | 0.00 | 34 | 1019.1 |
| 20260503010023 | 74 | 160 | 1.0 | 3.0 | 0.00 | 0.00 | 0.00 | 32 | 1019.1 |
| 20260503005038 | 76 | 144 | 0.0 | 2.0 | 0.00 | 0.00 | 0.00 | 31 | 1019.0 |
| 20260503004028 | 77 | 164 | 1.0 | 3.0 | 0.00 | 0.00 | 0.00 | 30 | 1019.0 |
| 20260503003024 | 78 | 159 | 2.0 | 4.0 | 0.00 | 0.00 | 0.00 | 29 | 1019.1 |
| 20260503002019 | 80 | 110 | 1.0 | 3.0 | 0.00 | 0.00 | 0.00 | 26 | 1019.0 |
| 20260503001050 | 82 | 79 | 1.0 | 3.0 | 0.00 | 0.00 | 0.00 | 24 | 1019.0 |
| 20260503000025 | 84 | 98 | 0.0 | 2.0 | 0.00 | 0.00 | 0.00 | 24 | 1019.1 |
| 20260502235020 | 84 | 230 | 1.0 | 3.0 | 0.00 | 0.00 | 0.00 | 24 | 1019.1 |
| 20260502234035 | 84 | 189 | 1.0 | 2.0 | 0.00 | 0.00 | 0.00 | 24 | 1019.0 |
| 20260502233025 | 84 | 305 | 1.0 | 3.0 | 0.00 | 0.00 | 0.00 | 23 | 1019.1 |